Weather in im. Telmana

Russia / Jewish Autonomous Oblast     48°32′50″N   134°58′32″E
temp.,
°C
wind,
m/s
gust,
m/s
humid.,
%
clouds,
%
prec.,
mm/h
press.,
hPa
HPBL,
m
30 june, thu
thu3001:00+19sse11874 0.0 100711
04:00+18ene11900 0.0 100711
07:00+20ene23883 0.0 1009114
10:00+24ne337798 0.0 1010521
13:00+26ne336674 0.1 1010706
16:00+27ene236387 0.1 1009818
19:00+27ene017245 0.0 1009488
22:00+21ssw00815 0.0 101111
1 july, fri
fri101:00+19sw11870 0.0 101111
04:00+18wsw34960 0.0 101266
07:00+20sw24910 0.0 1013147
10:00+24wsw34776 0.0 1013638
13:00+26w446924 0.1 10121059
16:00+27wsw336542 0.4 10111330
19:00+26wsw34790 0.1 1010409
22:00+21wsw34921 0.1 101063
2 july, sat
sat201:00+19wsw34965 0.0 101084
04:00+19sw34965 0.0 101075
07:00+20sw23909 0.0 1010167
10:00+24wsw347755 0.0 1009821
13:00+25wsw347466 0.3 1008987
16:00+26w447789 1.3 1007866
19:00+25wsw358273 0.3 1006406
22:00+21ssw339083 0.3 100641
3 july, sun
sun301:00+20sw229272 0.0 100725
04:00+19s229372 0.0 100624
07:00+21sse1190100 0.0 100789
10:00+25wsw127654 2.7 1007712
13:00+26sw347766 3.1 1006984
16:00+27wsw347483 5.1 10051054
19:00+27wsw137743 0.3 1005888
22:00+22sw2291100 0.3 100520
4 july, mon
mon401:00+22ssw229188 1.0 100416
04:00+21s2294100 1.8 100426
07:00+21wsw129474 0.5 100443
10:00+23ssw229161 0.9 1004202
13:00+27wsw237344 2.0 10041077
16:00+27wsw457550 3.8 1003921
19:00+27wsw23811 0.5 1002585
22:00+23s22915 1.1 100421